Back to catalog

STARLINK-31076

AliveCommunicationsVLEO
NORAD 58736·PAYLOAD·🇺🇸 United States

Launched Jan 7, 2024 from Cape Canaveral Space Force Station

Loading…

Next Passes (next 24 hours)

TLE

FreshSource: CelesTrak SupGP

Epoch: Sep 15, 2026, 02:34 UTC

1 58736C 24005J   26258.10743056 -.00036629  00000+0 -13268-2 0  2586
2 58736  43.0012 229.8232 0001138 267.6361 138.9470 15.27594253    19

Track STARLINK-31076 in real time with AllMySat

Download on the App Store